Location: *
(13.0000°N, 151.6000°E)
Time: 15:17:53
(UTC+00:00)

SL-4 R/B - Pass Details

Date: 01 April 2020
Orbit: 428 x 666 km, 51.6° (Epoch: 04 June)

Event Time Altitude Azimuth Distance (km) Brightness Sun altitude
Rises 18:43:44 0° 335° (NNW) 2,718 5.4 -16.7°
Reaches altitude 10° 18:46:02 10° 344° (NNW) 1,866 4.6 -16.1°
Maximum altitude 18:50:01 38° 52° (NE) 925 3.7 -15.2°
Drops below altitude 10° 18:54:16 10° 120° (ESE) 1,993 5.6 -14.1°
Sets 18:56:47 0° 128° (SE) 2,931 6.4 -13.5°
